Find Starlink 6090

NORAD ID: 56095 Int'l Des: 2023-046 Owner: SPXS Country: US Constellation: starlink operational
LEOCIRCULAR

当前视图

正在加载3D地球...

About Starlink 6090

Starlink 6090 (NORAD 56095) is a starlink constellation satellite (v1.5) launched Mar 29, 2023 by SPXS of US. It operates in LEO, CIRCULAR orbit with a mass of 305.00 kg.

关于 Starlink 6090

正在加载描述...

即将过境

Passes for default location (London). Set your location on the main map for personalized predictions.

高度历史

Loading altitude history...

两行轨道根数

1 56095U 23046C 26167.15368014 -.00000021 00000-0 87793-5 0 9993
2 56095 43.0058 325.2067 0001202 273.4737 86.5977 15.27576403177096
Epoch: Jun 16, 2026 • Age: 5 hours

当前状态

高度 484.1 km
速度 7.63 km/s
星下点 28.98°N, 68.35°E
发射日期 Mar 29, 2023
运行时间 3.2 years
类型 internet

技术详情

分类 Payload
质量 305.00 kg
干质量 290.00 kg
总质量 305.00 kg
长度 0.20 m
直径 2.80 m
跨度 9.00 m
形状 Box + pan
制造商 SPXS
平台类型 Starlink
阶段状态 In Orbit
所有者/国家 SPXS/US

Most Searched